• In India
  • List of Countries
  • For 7 days
  • Water Temperature
  • Satellite Maps
  • Weather Map
  • Weather Widgets
  • user-avatar
    Login

    Hourly Weather Klagenfurt

    Today, 16 December, Sunday

    Time Temperature Precipitation Wind Pressure Humidity
    00:00 -7°C° 0 mm 1 mps 689 mmHg 72%
    01:00 -7°C° 0 mm 1 mps 689 mmHg 71%
    02:00 -7°C° 0 mm 1 mps 689 mmHg 71%
    03:00 -7°C° 0 mm 1 mps 689 mmHg 71%
    04:00 -7°C° 0 mm 1 mps 689 mmHg 71%
    05:00 -7°C° 0 mm 1 mps 688 mmHg 71%
    06:00 -7°C° 0 mm 1 mps 688 mmHg 71%
    07:00 -7°C° 0 mm 1 mps 688 mmHg 71%
    08:00 -6°C° 0 mm 1 mps 688 mmHg 66%
    09:00 -3°C° 0 mm 1 mps 689 mmHg 62%
    10:00 -2°C° 0 mm 1 mps 689 mmHg 57%
    11:00 -1°C° 0 mm 1 mps 689 mmHg 55%
    12:00 0°C° 0 mm 1 mps 689 mmHg 53%
    13:00 +1°C° 0 mm 1 mps 689 mmHg 51%
    14:00 0°C° 0 mm 1 mps 688 mmHg 56%
    15:00 -1°C° 0 mm 1 mps 688 mmHg 61%
    16:00 -1°C° 0 mm 1 mps 688 mmHg 66%
    17:00 -2°C° 0 mm 1 mps 688 mmHg 67%
    18:00 -2°C° 0 mm 1 mps 688 mmHg 68%
    19:00 -2°C° 0 mm 1 mps 688 mmHg 69%
    20:00 -3°C° 0 mm 0 mps 688 mmHg 68%
    21:00 -3°C° 0 mm 0 mps 688 mmHg 68%
    22:00 -3°C° 0 mm 0 mps 688 mmHg 67%
    23:00 -3°C° 0 mm 0 mps 688 mmHg 67%

    Tomorrow, 17 December, Monday

    Time Temperature Precipitation Wind Pressure Humidity
    00:00 -2°C° 0 mm 0 mps 688 mmHg 67%
    01:00 -2°C° 0 mm 0 mps 688 mmHg 67%
    02:00 -2°C° 0 mm 0 mps 688 mmHg 67%
    03:00 -1°C° 0 mm 1 mps 688 mmHg 68%
    04:00 -1°C° 0 mm 1 mps 688 mmHg 68%
    05:00 -1°C° 0 mm 1 mps 689 mmHg 71%
    06:00 -1°C° 0 mm 1 mps 689 mmHg 73%
    07:00 -1°C° 0 mm 1 mps 689 mmHg 76%
    08:00 0°C° 0 mm 1 mps 690 mmHg 76%
    09:00 0°C° 0 mm 1 mps 690 mmHg 75%
    10:00 +1°C° 0 mm 1 mps 691 mmHg 75%
    11:00 +1°C° 0 mm 1 mps 691 mmHg 73%
    12:00 +2°C° 0 mm 1 mps 691 mmHg 71%
    13:00 +3°C° 0 mm 1 mps 691 mmHg 69%
    14:00 +2°C° 0 mm 1 mps 692 mmHg 73%
    15:00 +1°C° 0 mm 1 mps 692 mmHg 77%
    16:00 +1°C° 0 mm 1 mps 692 mmHg 81%
    17:00 0°C° 0 mm 1 mps 693 mmHg 83%
    18:00 0°C° 0 mm 1 mps 693 mmHg 84%
    19:00 -1°C° 0 mm 1 mps 694 mmHg 86%
    20:00 -1°C° 0 mm 1 mps 694 mmHg 86%
    21:00 -1°C° 0 mm 1 mps 695 mmHg 86%
    22:00 -2°C° 0 mm 1 mps 695 mmHg 86%
    23:00 -2°C° 0 mm 1 mps 695 mmHg 86%

    Day after tomorrow, 18 December, Tuesday

    Time Temperature Precipitation Wind Pressure Humidity
    00:00 -2°C° 0 mm 1 mps 695 mmHg 85%
    01:00 -2°C° 0 mm 1 mps 695 mmHg 85%
    02:00 -2°C° 0 mm 1 mps 695 mmHg 84%
    03:00 -2°C° 0 mm 1 mps 696 mmHg 84%
    04:00 -2°C° 0 mm 1 mps 696 mmHg 83%
    05:00 -2°C° 0 mm 1 mps 696 mmHg 83%
    06:00 -2°C° 0 mm 1 mps 696 mmHg 83%
    07:00 -2°C° 0 mm 1 mps 696 mmHg 83%
    08:00 -1°C° 0 mm 1 mps 696 mmHg 78%
    09:00 0°C° 0 mm 1 mps 697 mmHg 74%
    10:00 +1°C° 0 mm 0 mps 697 mmHg 69%
    11:00 +2°C° 0 mm 0 mps 697 mmHg 66%
    12:00 +4°C° 0 mm 1 mps 696 mmHg 63%
    13:00 +5°C° 0 mm 1 mps 696 mmHg 60%
    14:00 +3°C° 0 mm 1 mps 696 mmHg 67%
    15:00 +2°C° 0 mm 1 mps 695 mmHg 74%
    16:00 +1°C° 0 mm 1 mps 695 mmHg 80%
    17:00 0°C° 0 mm 1 mps 695 mmHg 82%
    18:00 0°C° 0 mm 1 mps 695 mmHg 83%
    19:00 -1°C° 0 mm 1 mps 694 mmHg 85%
    20:00 -1°C° 0 mm 1 mps 694 mmHg 85%
    21:00 -1°C° 0 mm 1 mps 694 mmHg 85%
    22:00 -3°C° 0 mm 0 mps 694 mmHg 85%
    23:00 -3°C° 0 mm 0 mps 693 mmHg 84%

    19 December, Wednesday

    Time Temperature Precipitation Wind Pressure Humidity
    00:00 -3°C° 0 mm 0 mps 693 mmHg 83%
    01:00 -3°C° 0 mm 0 mps 693 mmHg 82%
    02:00 -3°C° 0 mm 0 mps 693 mmHg 80%
    03:00 -2°C° 0 mm 1 mps 692 mmHg 78%
    04:00 -2°C° 0 mm 1 mps 692 mmHg 77%
    05:00 -2°C° 0 mm 1 mps 692 mmHg 75%
    06:00 -2°C° 0 mm 1 mps 692 mmHg 74%
    07:00 -2°C° 0 mm 1 mps 691 mmHg 72%
    08:00 -2°C° 0 mm 0 mps 692 mmHg 69%
    09:00 -1°C° 0 mm 0 mps 692 mmHg 66%
    10:00 0°C° 0 mm 0 mps 692 mmHg 63%
    11:00 +2°C° 0 mm 1 mps 692 mmHg 61%
    12:00 +3°C° 0 mm 1 mps 692 mmHg 59%
    13:00 +4°C° 0 mm 1 mps 692 mmHg 58%
    14:00 +3°C° 0 mm 1 mps 692 mmHg 64%
    15:00 +2°C° 0 mm 1 mps 691 mmHg 69%
    16:00 +1°C° 0 mm 1 mps 691 mmHg 75%
    17:00 0°C° 0 mm 1 mps 691 mmHg 78%
    18:00 0°C° 0 mm 1 mps 691 mmHg 80%
    19:00 -1°C° 0 mm 1 mps 691 mmHg 82%
    20:00 -1°C° 0 mm 1 mps 691 mmHg 83%
    21:00 -1°C° 0 mm 1 mps 691 mmHg 85%
    22:00 -1°C° 0 mm 1 mps 691 mmHg 86%
    23:00 -1°C° 0 mm 1 mps 691 mmHg 87%

    20 December, Thursday

    Time Temperature Precipitation Wind Pressure Humidity
    00:00 -1°C° 0 mm 1 mps 691 mmHg 88%
    01:00 0°C° 0 mm 1 mps 690 mmHg 89%
    02:00 0°C° 0 mm 1 mps 690 mmHg 90%
    03:00 0°C° 0 mm 1 mps 690 mmHg 90%
    04:00 0°C° 0 mm 1 mps 690 mmHg 91%
    05:00 0°C° 0.1 mm 1 mps 690 mmHg 91%
    06:00 +1°C° 0.1 mm 1 mps 690 mmHg 91%
    07:00 +1°C° 0.1 mm 1 mps 690 mmHg 91%
    08:00 0°C° 0.2 mm 0 mps 691 mmHg 90%
    09:00 +1°C° 0.2 mm 0 mps 691 mmHg 89%
    10:00 +1°C° 0.2 mm 0 mps 691 mmHg 87%
    11:00 +2°C° 0.4 mm 0 mps 691 mmHg 87%
    12:00 +2°C° 0.4 mm 0 mps 691 mmHg 86%
    13:00 +3°C° 0.4 mm 1 mps 691 mmHg 86%
    14:00 +3°C° 0.3 mm 1 mps 691 mmHg 88%
    15:00 +2°C° 0.3 mm 1 mps 691 mmHg 90%
    16:00 +2°C° 0.3 mm 1 mps 691 mmHg 92%
    17:00 +2°C° 0.1 mm 1 mps 691 mmHg 92%
    18:00 +1°C° 0.1 mm 1 mps 692 mmHg 92%
    19:00 +1°C° 0.1 mm 1 mps 692 mmHg 92%
    20:00 +1°C° 0.1 mm 1 mps 692 mmHg 92%
    21:00 +1°C° 0.1 mm 1 mps 692 mmHg 92%
    22:00 0°C° 0.1 mm 1 mps 693 mmHg 92%
    23:00 0°C° 0 mm 1 mps 693 mmHg 92%

    21 December, Friday

    Time Temperature Precipitation Wind Pressure Humidity
    00:00 0°C° 0 mm 1 mps 693 mmHg 91%
    01:00 0°C° 0 mm 1 mps 693 mmHg 91%
    02:00 -1°C° 0 mm 1 mps 693 mmHg 91%
    03:00 -1°C° 0 mm 1 mps 693 mmHg 91%
    04:00 -1°C° 0 mm 1 mps 693 mmHg 91%
    05:00 -1°C° 0 mm 1 mps 693 mmHg 90%
    06:00 -1°C° 0 mm 1 mps 694 mmHg 90%
    07:00 -2°C° 0 mm 1 mps 694 mmHg 90%
    08:00 0°C° 0 mm 1 mps 694 mmHg 86%
    09:00 +1°C° 0 mm 1 mps 694 mmHg 83%
    10:00 +1°C° 0 mm 0 mps 695 mmHg 79%
    11:00 +3°C° 0 mm 1 mps 694 mmHg 76%
    12:00 +4°C° 0 mm 1 mps 694 mmHg 74%
    13:00 +5°C° 0 mm 1 mps 694 mmHg 71%
    14:00 +3°C° 0 mm 1 mps 694 mmHg 77%
    15:00 +2°C° 0 mm 1 mps 693 mmHg 82%
    16:00 +1°C° 0 mm 1 mps 693 mmHg 88%
    17:00 +1°C° 0 mm 1 mps 693 mmHg 89%
    18:00 +1°C° 0 mm 1 mps 693 mmHg 89%
    19:00 0°C° 0 mm 1 mps 692 mmHg 90%
    20:00 0°C° 0 mm 1 mps 692 mmHg 89%
    21:00 +1°C° 0 mm 1 mps 692 mmHg 89%
    22:00 +1°C° 0 mm 1 mps 692 mmHg 89%
    23:00 +1°C° 0 mm 1 mps 692 mmHg 89%
    Show more